Location: Namasale
(1.5000°N, 32.6167°E)
Time: 13:17:12
(UTC+00:00)

Explorer 11/Cluster Stage 4 - All Passes

Search period start: 23 April 2021 00:00
Search period end: 03 May 2021 00:00
Orbit: 467 x 1257 km, 28.8° (Epoch: 22 April)

Date Brightness Start Highest point End Pass type
(mag) Time Alt. Az. Time Alt. Az. Time Alt. Az.
23 Apr - 00:45:34 10° W 00:48:38 20° NNW 00:51:27 10° NNE night (unlit)
23 Apr - 08:06:42 10° NNE 08:08:05 11° NNE 08:09:32 10° NE daylight
23 Apr - 09:51:12 10° NW 09:56:55 47° NNE 10:03:54 10° ESE daylight
23 Apr - 11:39:25 10° WNW 11:46:02 52° SSW 11:53:47 10° SE daylight
23 Apr - 13:30:55 10° WSW 13:36:00 18° SSW 13:41:18 10° SSE daylight
23 Apr - 20:56:36 10° SSW 21:00:34 18° SSE 21:04:02 10° ESE night (unlit)
23 Apr - 22:44:19 10° SW 22:49:36 74° SSE 22:53:50 10° ENE night (unlit)
24 Apr - 00:35:02 10° WNW 00:37:45 16° NNW 00:40:14 10° N night (unlit)
24 Apr - 07:55:02 10° N 07:57:10 12° NNE 07:59:27 10° NE daylight
24 Apr - 09:40:13 10° NW 09:45:49 55° NNE 09:52:48 10° ESE daylight
24 Apr - 11:28:41 10° W 11:34:57 43° SSW 11:42:21 10° SE daylight
24 Apr - 13:20:43 10° SW 13:25:01 16° SSW 13:29:30 10° SSE daylight
24 Apr - 20:44:51 10° SSW 20:49:42 22° SSE 20:53:50 10° ESE night (unlit)
24 Apr - 22:33:06 10° WSW 22:38:41 86° NNW 22:43:04 10° ENE night (unlit)
25 Apr - 00:24:38 10° WNW 00:26:51 14° NNW 00:28:54 10° N night (unlit)
25 Apr - 07:43:38 10° N 07:46:13 14° NNE 07:49:04 10° ENE daylight
25 Apr - 09:29:18 10° NW 09:34:45 65° NNE 09:41:38 10° ESE daylight
25 Apr - 11:18:02 10° W 11:23:54 36° SSW 11:30:50 10° SE daylight
25 Apr - 13:10:47 10° SW 13:14:05 13° SSW 13:17:30 10° S daylight
25 Apr - 20:33:12 10° SSW 20:38:48 28° SSE 20:43:29 10° E night (unlit)
25 Apr - 22:21:58 10° WSW 22:27:43 69° NNW 22:32:15 10° NE night (unlit)
26 Apr - 00:14:29 10° NW 00:15:57 11° NNW 00:17:21 10° NNW night (unlit)
26 Apr - 07:32:21 10° N 07:35:16 16° NNE 07:38:33 10° ENE daylight
26 Apr - 09:18:24 10° NW 09:23:42 78° NNE 09:30:25 10° ESE daylight
26 Apr - 11:07:29 10° W 11:12:54 30° SSW 11:19:16 10° SSE daylight
26 Apr - 13:01:27 10° SSW 13:03:11 11° SSW 13:04:57 10° S daylight
26 Apr - 18:35:08 10° S 18:37:54 12° SSE 18:40:31 10° SE visible
26 Apr - 20:21:38 10° SW 20:27:53 35° SSE 20:32:59 10° E night (unlit)
26 Apr - 22:10:50 10° WSW 22:16:44 56° NNW 22:21:23 10° NE night (unlit)
27 Apr - 07:21:09 10° NNW 07:24:19 18° NNE 07:27:56 10° ENE daylight
27 Apr - 09:07:35 10° WNW 09:12:40 86° SSW 09:19:11 10° ESE daylight
27 Apr - 10:57:03 10° WSW 11:01:56 24° SSW 11:07:37 10° SSE daylight
27 Apr - 18:22:55 10° SSW 18:27:00 15° SSE 18:30:48 10° SE visible
27 Apr - 20:10:08 10° SW 20:16:53 43° SSE 20:22:24 10° E night (unlit)
27 Apr - 21:59:45 10° WSW 22:05:43 46° NNW 22:10:29 10° NE night (unlit)
28 Apr - 07:10:01 10° NNW 07:13:22 22° NNE 07:17:14 10° E daylight
28 Apr - 08:56:49 10° WNW 09:01:41 70° SSW 09:07:54 10° SE daylight
28 Apr - 10:46:45 10° WSW 10:51:01 20° SSW 10:55:54 10° SSE daylight
28 Apr - 18:11:00 10° SSW 18:16:04 18° SSE 18:20:43 10° ESE visible
28 Apr - 19:58:40 10° SW 20:05:52 53° SSE 20:11:43 10° ENE night (unlit)
28 Apr - 21:48:42 10° W 21:54:41 39° NNW 21:59:31 10° NE night (unlit)
29 Apr - 06:58:57 10° NNW 07:02:25 25° NNE 07:06:29 10° E daylight
29 Apr - 08:46:08 10° WNW 08:50:44 55° SSW 08:56:34 10° SE daylight
29 Apr - 10:36:40 10° WSW 10:40:07 16° SSW 10:44:00 10° SSE daylight
29 Apr - 17:59:15 10° SSW 18:05:05 22° SSE 18:10:25 10° ESE visible
29 Apr - 19:47:16 10° SW 19:54:48 64° SSE 20:00:58 10° ENE night (unlit)
29 Apr - 21:37:42 10° W 21:43:38 33° NNW 21:48:30 10° NNE night (unlit)
30 Apr - 06:47:55 10° NNW 06:51:29 31° NNE 06:55:40 10° E daylight
30 Apr - 08:35:30 10° W 08:39:49 42° SSW 08:45:12 10° SE daylight
30 Apr - 10:26:56 10° SW 10:29:17 12° SSW 10:31:49 10° S daylight
30 Apr - 17:47:35 10° SSW 17:54:03 26° SSE 17:59:59 10° E visible
30 Apr - 19:35:54 10° SW 19:43:43 77° SSE 19:50:08 10° ENE visible
30 Apr - 21:26:46 10° W 21:32:34 29° NNW 21:37:27 10° NNE night (unlit)
01 May - 06:36:56 10° NW 06:40:33 39° NNE 06:44:48 10° E daylight
01 May - 08:24:57 10° W 08:28:57 32° SSW 08:33:47 10° SE daylight
01 May - 15:50:53 10° S 15:52:34 11° SSE 15:54:14 10° SSE daylight
01 May - 17:36:01 10° SSW 17:42:59 30° SSE 17:49:24 10° E visible
01 May - 19:24:36 10° WSW 19:32:35 89° SSE 19:39:15 10° ENE visible
01 May - 21:15:52 10° W 21:21:31 25° NNW 21:26:20 10° NNE night (unlit)
02 May - 06:26:00 10° NW 06:29:39 50° NNE 06:33:54 10° ESE daylight
02 May - 08:14:32 10° W 08:18:05 25° SSW 08:22:17 10° SSE daylight
02 May - 15:38:31 10° S 15:41:37 12° SSE 15:44:45 10° SE daylight
02 May - 17:24:31 10° SW 17:31:53 35° SSE 17:38:44 10° E visible
02 May - 19:13:20 10° WSW 19:21:25 79° NNW 19:28:17 10° NE visible
02 May - 21:05:02 10° W 21:10:27 22° NNW 21:15:11 10° NNE night (unlit)
